Location: Saratoga Springs
(43.0831°N, 73.7850°W)
Time: 11:48:15
(UTC-04:00)

Transit 4A - Pass Details

Date: 19 April 2024
Orbit: 871 x 971 km, 66.8° (Epoch: 20 May)

Event Time Altitude Azimuth Distance (km) Brightness Sun altitude
Rises 21:33:47 0° 334° (NNW) 3,469 12.0 -18.7°
Reaches altitude 10° 21:36:29 10° 343° (NNW) 2,527 11.0 -19.1°
Maximum altitude 21:41:50 36° 49° (NE) 1,356 8.7 -19.9°
Enters shadow 21:43:52 28° 88° (E) 1,585 8.7 -20.2°
